Baton Rouge, LA

4:13 PM CDT on October 21, 2019 (GMT -0500)
Baton Rouge Metro-Ryan

Weather History for KBTR - August, 2019

Change the Weather History Date:

Saturday, August 10, 2019

  Actual Average Record
Temperature  
Mean Temperature 87 °F 83 °F  
Max Temperature 95 °F 93 °F 103 °F (2015)
Min Temperature 78 °F 74 °F 62 °F (1976)
Degree Days  
Heating Degree Days 0 0  
Month to date heating degree days 0 0  
Since 1 June heating degree days 0 0  
Since 1 July heating degree days 0 0  
Cooling Degree Days 22 18  
Month to date cooling degree days 200 180  
Year to date cooling degree days 1934 1785  
Since 1 June cooling degree days 1263 1220  
Growing Degree Days 36 (Base 50)    
Moisture  
Dew Point 76 °F    
Average Humidity 70    
Maximum Humidity 91    
Minimum Humidity 49    
Precipitation  
Precipitation 0.00 in 0.20 in 3.36 in (1991)
Month to date precipitation 0.42 1.92  
Year to date precipitation 41.84 37.81  
Snow  
Snow 0.00 in - - ()
Month to date snowfall 0.0  
Since 1 June snowfall 0.0  
Since 1 July snowfall 0.0  
Snow Depth 0.00 in    
Sea Level Pressure  
Sea Level Pressure 29.97 in    
Wind  
Wind Speed 7 mph (WSW)    
Max Wind Speed 14 mph    
Max Gust Speed 20 mph    
Visibility 10 miles    
Events      
T = Trace of Precipitation, MM = Missing Value Source: NWS Daily Summary

Daily Weather History Graph

Daily Weather History Graph

Search for Another Location

Airport or City:

Astronomy

Aug. 10, 2019 Rise Set
Actual Time 6:28 AM CDT 7:51 PM CDT
Civil Twilight 6:02 AM CDT 8:16 PM CDT
Nautical Twilight 5:31 AM CDT 8:47 PM CDT
Astronomical Twilight 5:00 AM CDT 9:19 PM CDT
Moon 4:26 PM CDT (8/10) 2:10 AM CDT (8/10)
Length of Visible Light 14h 14m
Length of Day
13h 23m
Waxing Gibbous, 79% of the Moon is Illuminated
Aug 10
Waxing Gibbous
Aug 15
Full
Aug 23
Last Quarter
Aug 30
New
Sep 5
First Quarter

Hourly Weather History & Observations

Time (CDT) Temp. Heat Index Dew Point Humidity Pressure Visibility Wind Dir Wind Speed Gust Speed Precip Events Conditions
12:53 AM 81.0 °F 87.3 °F 75.9 °F 85% 29.95 in 10.0 mi WSW 8.1 mph - N/A   Clear
1:53 AM 81.0 °F 87.3 °F 75.9 °F 85% 29.94 in 10.0 mi SW 5.8 mph - N/A   Clear
2:53 AM 80.1 °F 85.4 °F 75.9 °F 87% 29.95 in 10.0 mi SW 4.6 mph - N/A   Clear
3:53 AM 80.1 °F 85.4 °F 75.9 °F 87% 29.95 in 10.0 mi WNW 3.5 mph - N/A   Clear
4:53 AM 80.1 °F 85.4 °F 75.9 °F 87% 29.96 in 10.0 mi Calm Calm - N/A   Clear
5:53 AM 79.0 °F - 75.9 °F 90% 29.96 in 10.0 mi Calm Calm - N/A   Clear
6:53 AM 79.0 °F - 75.9 °F 90% 29.99 in 7.0 mi Calm Calm - N/A   Clear
7:53 AM 82.0 °F 91.0 °F 78.1 °F 88% 30.00 in 8.0 mi West 6.9 mph - N/A   Clear
8:53 AM 84.0 °F 93.7 °F 77.0 °F 79% 30.02 in 10.0 mi West 10.4 mph - N/A   Scattered Clouds
9:02 AM 84.9 °F 96.6 °F 78.1 °F 80% 30.02 in 10.0 mi WSW 10.4 mph - N/A   Mostly Cloudy
9:09 AM 84.9 °F 96.6 °F 78.1 °F 80% 30.02 in 10.0 mi WSW 9.2 mph - N/A   Mostly Cloudy
9:53 AM 87.1 °F 98.8 °F 77.0 °F 72% 30.02 in 10.0 mi West 11.5 mph - N/A   Mostly Cloudy
10:53 AM 90.0 °F 101.3 °F 75.9 °F 63% 30.03 in 10.0 mi West 10.4 mph - N/A   Mostly Cloudy
11:53 AM 91.0 °F 100.4 °F 73.9 °F 57% 30.02 in 10.0 mi West 10.4 mph - N/A   Mostly Cloudy
12:53 PM 91.9 °F 101.3 °F 73.9 °F 55% 30.00 in 10.0 mi SW 8.1 mph - N/A   Mostly Cloudy
1:53 PM 93.0 °F 101.9 °F 73.0 °F 52% 29.97 in 10.0 mi WNW 10.4 mph - N/A   Scattered Clouds
2:53 PM 93.9 °F 104.0 °F 73.9 °F 52% 29.95 in 10.0 mi SW 11.5 mph - N/A   Scattered Clouds
4:53 PM 93.9 °F 102.1 °F 72.0 °F 49% 29.93 in 10.0 mi NW 5.8 mph - N/A   Partly Cloudy
5:53 PM 93.0 °F 101.9 °F 73.0 °F 52% 29.93 in 10.0 mi SW 8.1 mph - N/A   Clear
6:53 PM 91.0 °F 100.4 °F 73.9 °F 57% 29.92 in 10.0 mi SSW 6.9 mph - N/A   Clear
7:53 PM 88.0 °F 96.5 °F 73.9 °F 63% 29.93 in 10.0 mi West 3.5 mph - N/A   Clear
8:53 PM 87.1 °F 97.3 °F 75.9 °F 69% 29.94 in 10.0 mi SW 8.1 mph - N/A   Clear
9:53 PM 87.1 °F 97.3 °F 75.9 °F 69% 29.96 in 10.0 mi SW 9.2 mph - N/A   Clear
10:53 PM 84.9 °F 95.3 °F 77.0 °F 77% 29.96 in 10.0 mi SW 5.8 mph - N/A   Clear
11:53 PM 84.0 °F 93.7 °F 77.0 °F 79% 29.95 in 10.0 mi SW 6.9 mph - N/A   Clear